Regional Weather Roundup
Issued by NWS

Home | Current Version | Previous Version | Graphics & Text | Print | Product List | Glossary On
Versions: 1 2 3 4 5 6 7 8 9 10 11 12 13 14 15 16 17 18 19 20 21 22 23 24 25 26 27 28 29 30 31 32 33 34 35 36 37 38 39 40 41 42 43 44 45 46 47 48 49 50
000
ASUS43 KBIS 232102
RWRND

NORTH DAKOTA REGIONAL WEATHER ROUNDUP
NATIONAL WEATHER SERVICE BISMARCK ND
400 PM CDT WED AUG 23 2017

NOTE: "FAIR" INDICATES FEW OR NO CLOUDS BELOW 12,000 FEET WITH NO
SIGNIFICANT WEATHER AND/OR OBSTRUCTIONS TO VISIBILITY.


NDZ001>003-009>011-017-232200-
NORTHWEST NORTH DAKOTA

CITY           SKY/WX    TMP DP  RH WIND       PRES   REMARKS
WILLISTON      SUNNY     90  44  20 VRB3      29.93F
MINOT            N/A     88  44  21 VRB7      29.92F
MINOT AFB      MOSUNNY   87  45  22 W8        29.90F
$$

NDZ018>021-031>035-040>046-232200-
SOUTHWEST NORTH DAKOTA

CITY           SKY/WX    TMP DP  RH WIND       PRES   REMARKS
BISMARCK       SUNNY     84  54  35 VRB6G16   29.97F
DICKINSON      SUNNY     86  48  26 SE6       29.96F
GARRISON         N/A     82  53  36 SE8       29.95F
HETTINGER ARPT SUNNY     84  49  29 E6        29.99F
$$

NDZ004>008-012>016-024-026-027-054-232200-
NORTHEAST NORTH DAKOTA

CITY           SKY/WX    TMP DP  RH WIND       PRES   REMARKS
GRAND FORKS    MOSUNNY   78  49  35 S9        30.00F
GRND FRKS AFB  MOSUNNY   77  50  38 S12       30.00F
DEVILS LAKE    SUNNY     76  49  38 S8        29.99F
$$

NDZ022-023-025-028>030-036>039-047>053-232200-
SOUTHEAST NORTH DAKOTA

CITY           SKY/WX    TMP DP  RH WIND       PRES   REMARKS
FARGO          SUNNY     77  49  37 VRB3      30.01F
JAMESTOWN      SUNNY     79  51  37 S9        29.99F
$$





USA.gov is the U.S. government's official web portal to all federal, state and local government web resources and services.